Date,TemperatureHighF,TemperatureAvgF,TemperatureLowF,DewpointHighF,DewpointAvgF,DewpointLowF,HumidityHigh,HumidityAvg,HumidityLow,PressureMaxIn,PressureMinIn,WindSpeedMaxMPH,WindSpeedAvgMPH,GustSpeedMaxMPH,PrecipitationSumIn
2013-3-1,66.9,61.3,56.8,52.8,47.5,43.4,72,61,52,29.86,29.76,7,2,0,0.00
2013-3-2,68.4,57.4,47.8,46.0,39.0,33.3,73,52,34,29.91,29.74,11,3,0,0.00
2013-3-3,63.0,53.1,46.2,39.3,37.2,33.0,72,56,39,30.04,29.75,12,3,0,0.00
2013-3-4,67.1,52.3,37.9,42.2,33.8,25.3,83,53,21,30.10,29.91,8,2,0,0.00
2013-3-5,77.2,61.6,45.7,55.6,49.6,41.0,93,67,42,30.07,29.88,9,2,0,0.00
2013-3-6,77.0,64.1,52.2,60.4,47.9,28.4,92,60,25,29.98,29.74,13,3,0,0.00
2013-3-7,71.4,57.3,45.5,51.5,42.2,32.4,88,59,35,30.07,29.89,7,2,0,0.00
2013-3-8,77.0,60.7,47.5,52.8,47.4,38.4,94,67,25,30.08,29.88,6,2,0,0.00
2013-3-9,75.6,63.3,50.7,54.9,50.5,46.6,93,65,46,30.08,29.95,9,2,0,0.00
2013-3-10,75.7,69.2,63.1,56.0,52.8,49.4,64,56,46,30.04,29.85,9,3,0,0.00
2013-3-11,76.6,70.6,66.2,58.8,56.5,54.1,69,61,49,29.98,29.80,10,4,0,0.00
2013-3-12,81.3,73.5,66.2,64.8,61.6,58.0,80,67,56,29.86,29.75,11,3,0,0.00
2013-3-13,74.3,64.1,53.8,61.9,51.5,42.5,85,66,35,30.00,29.85,8,3,0,0.00
2013-3-14,70.7,59.4,50.9,48.8,43.6,37.6,85,59,30,30.08,29.90,11,3,0,0.00
2013-3-15,73.6,59.9,48.6,50.2,46.1,40.8,79,62,36,30.13,29.94,8,2,0,0.00
2013-3-16,75.0,63.2,49.8,58.5,50.2,46.8,95,66,40,30.07,29.89,9,2,0,0.00
2013-3-17,75.6,65.8,53.6,58.5,55.0,49.1,93,70,52,30.02,29.86,9,2,0,0.00
2013-3-18,80.8,70.5,63.5,68.0,62.5,56.9,96,77,59,29.93,29.78,11,2,0,1.10
2013-3-19,84.2,71.6,65.1,67.5,64.7,60.5,96,80,52,29.86,29.71,10,1,0,0.00
2013-3-20,83.7,71.3,61.5,68.2,61.4,54.3,97,74,49,29.82,29.65,6,2,0,0.00
2013-3-21,77.2,65.3,53.2,60.1,51.0,39.3,93,64,27,29.83,29.64,7,2,0,0.00
2013-3-22,76.1,65.1,51.3,66.0,55.6,47.8,96,73,54,29.87,29.75,9,2,0,0.00
2013-3-23,88.0,77.8,69.4,73.1,68.3,64.9,96,74,49,29.85,29.62,7,2,0,0.00
2013-3-24,89.1,78.2,70.3,72.8,69.4,61.6,97,77,49,29.74,29.50,9,3,0,0.70
2013-3-25,81.9,72.6,60.8,72.1,56.4,33.1,98,63,24,29.86,29.59,7,2,0,0.02
2013-3-26,69.3,60.1,50.0,40.2,34.2,27.6,59,39,22,30.10,29.86,13,4,0,0.00
2013-3-27,69.8,56.4,44.2,44.1,36.9,29.4,76,50,26,30.14,29.97,7,3,0,0.00
2013-3-28,73.6,58.2,45.3,48.5,42.4,37.6,83,59,30,30.15,29.99,6,2,0,0.00
2013-3-29,76.5,62.3,48.7,50.5,47.0,42.2,82,60,38,30.16,30.05,7,2,0,0.00
2013-3-30,75.0,64.3,52.5,60.4,50.0,44.4,96,63,36,30.15,30.01,7,2,0,0.00
2013-3-31,79.7,68.9,54.9,62.1,57.2,49.4,94,67,50,30.06,29.89,10,3,0,0.00